Location: Brookview Estates
(36.0476°N, 86.6931°W)
Time: 08:46:38
(UTC+00:00)

IDEFIX/ARIANE 42P - Pass Details

Date: 30 March 2020
Orbit: 786 x 802 km, 98.4° (Epoch: 06 June)

Event Time Altitude Azimuth Distance (km) Brightness Sun altitude
Rises 08:57:20 0° 15° (NNE) 3,284 6.4 -30.9°
Reaches altitude 10° 08:59:41 10° 18° (NNE) 2,353 5.6 -30.5°
Enters shadow 09:04:31 66° 75° (ENE) 858 2.8 -29.7°
